DECAYED

STARLINK-5810, 55776 (Decayed)

Orbit data source: Space-Track

STARLINK-5810, 55776 was a payload satellite owned by SpaceX/Seattle (US) in LEO that was launched on Fri, 03 Mar 2023 UTC via an FALCON 9 launch vehicle from the Air Force Western Test Range (AFWTR). Payload-class satellites include a variety of spacecraft equipped with specific instruments for various scientific and technological missions. These include communications satellites like Starlink; space stations such as the ISS; scientific satellites like the Hubble; Earth observation satellites from companies like Planet Labs, Umbra, and HawkEye 360; GPS; miniature CubeSats for education and research; and military/defense satellites.

Not visible in the next 10 days
Identifier
55776, 2023-028AM
Orbit
Decayed
Country
Flag of USUS
Related business
Manufacturer
SpaceX/Seattle
Mission
Decayed Commercial Communications
Bus & Motor
STARLINK, Unknown motor
Mass
305 kg wet, ~290 kg dry
Launch date (UTC)
2023-03-03 (3 years ago)
Launch vehicle
FALCON 9
Launch site
Air Force Western Test Range (AFWTR)
Object type
Payload
Rocket body
Debris
Shape & HBR
Box + 1 Pan, 10.1 m
Radar Cross Section
11.087 m², Large (>1 m²)

Expand to show TLE details & history
Last TLE update: 7 months ago

TLE from 7 months ago
0 STARLINK-5810
1 55776U 23028AM  25335.44214378  .14806092  45731-5  14275-3 0  9993
2 55776  69.9800  92.6972 0007096 213.0435 147.0359 16.51028568152299
Epoch: 2025-12-01T10:36Z
TLE epoch observation values (Epoch: 2025-12-01T10:36:41.222Z)
Latitude
-0.00004°
Longitude
-137.01616°
Altitude
143.093 km
Speed
7.818 km/s
True Right ascension
06h 10m 47s
True Declination
0° 00' 00"
Sunlit
Object was in full shadow at epoch
Visualization orbit readout
Latitude
Unknown
Longitude
Unknown
Altitude
Unknown
Speed
Unknown
Apparent Right ascension
Unknown
Apparent Declination
Unknown
Sunlit
N/A
Visualization observer readout
Local Sidereal Time
21:29:50
Azimuth
Unknown
Elevation
Unknown
Doppler factor
Unknown
Orbital elements
Apogee altitude
139.063 km
Perigee altitude
129.82 km
Semi-major axis
6,512.578 km
Eccentricity
0.00071
Inclination
69.98°
RAAN
92.6972°
Arg. of periapsis
213.0435°
True anomaly
147.08011°
Mean anomaly
147.0359°
Eccentric anomaly
147.05801°
Mean motion
4.12965 °/min
Orbital period
87.17 mins
BSTAR
0.00014275
Loading maneuver chart data...
Computing Atmospheric mass density...
Loading historical data...
Loading historical data...
Loading historical data...
Loading historical data...
Loading historical data...
Loading historical data...
Loading historical data...

Documentation

Showing up to 5 results
|